Weather in Vozdvizhenye

Russia / Ivanovo Oblast     57°29′56″N   42°00′57″E
temp.,
°C
wind,
m/s
gust,
m/s
humid.,
%
clouds,
%
prec.,
mm/h
press.,
hPa
HPBL,
m
7 august, sun
sun700:00+19s297152 0.0 1019159
03:00+18sse26714 0.0 1019126
06:00+19sse277624 0.0 1018175
09:00+26s46500 0.0 1018586
12:00+29ssw57385 0.0 10171513
15:00+30sse574076 0.0 10161646
18:00+27wsw2651100 0.1 1015569
21:00+18nnw3891100 8.1 1018232
8 august, mon
mon800:00+17nw1297100 0.7 101940
03:00+16nnw2599100 0.8 1020164
06:00+15nnw259794 0.1 1021215
09:00+18n3387100 0.1 1022449
12:00+21n2264100 0.0 1022757
15:00+22nnw2161100 0.0 1021671
18:00+21nnw22664 0.0 1021522
21:00+16n23889 0.0 102245
9 august, tue
tue900:00+15ne239188 0.0 102262
03:00+15nne2390100 0.2 102190
06:00+15ne1292100 0.5 102184
09:00+18n2383100 0.7 1021329
12:00+17n2494100 2.9 1021251
15:00+19nne3483100 3.4 1020571
18:00+18nne4584100 0.2 1019527
21:00+16ne239799 0.4 1020104
10 august, wed
wed1000:00+14nne249952 0.1 1019120
03:00+14n229970 0.1 101951
06:00+14nne1397100 0.0 1019115
09:00+18n228060 0.0 1019586
12:00+20n226789 0.4 10181009
15:00+19ene1175100 2.5 1018677
18:00+18n248646 3.3 1018195
21:00+14nne259678 4.9 1018139
11 august, thu
thu1100:00+14nnw4898100 4.8 1018329
03:00+14nnw499699 6.4 1019491
06:00+13nnw4109391 0.0 1021460
09:00+18nnw36715 0.0 1022603
12:00+22nnw3443100 0.0 10212300
15:00+21wnw255230 0.0 1022892
18:00+21wnw125320 0.0 102185
21:00+16w2265100 0.0 102230